West Tisbury, MA

10:05 PM EST on February 09, 2016 (GMT -0500)
Martha's Vineyard

Weather History for KMVY - September, 2013

Change the Weather History Date:

Monday, September 2, 2013

  Actual Average Record
Temperature  
Mean Temperature 76 °F -  
Max Temperature 82 °F 75 °F 88 °F (1969)
Min Temperature 71 °F 58 °F 42 °F (2001)
Cooling Degree Days 12    
Growing Degree Days 26 (Base 50)    
Moisture  
Dew Point 71 °F    
Average Humidity 90    
Maximum Humidity 100    
Minimum Humidity 74    
Precipitation  
Precipitation 0.01 in - - ()
Sea Level Pressure  
Sea Level Pressure 29.82 in    
Wind  
Wind Speed 9 mph (South)    
Max Wind Speed 18 mph    
Max Gust Speed 26 mph    
Visibility 5 miles    
Events Fog , Rain    
Averages and records for this station are not official NWS values.
T = Trace of Precipitation, MM = Missing Value Source: NWS Daily Summary

Daily Weather History Graph

Daily Weather History Graph

Search for Another Location

Airport or City:

Trip Planner

Search our weather history database for the weather conditions in past years. The results will help you decide how hot, cold, wet, or windy it might be!

Date:

Astronomy

Sep. 02, 2013 Rise Set
Actual Time 6:09 AM EDT 7:13 PM EDT
Civil Twilight 5:41 AM EDT 7:41 PM EDT
Nautical Twilight 5:07 AM EDT 8:15 PM EDT
Astronomical Twilight 4:32 AM EDT 8:50 PM EDT
Moon 3:22 AM EDT (9/2) 5:25 PM EDT (9/2)
Length of Visible Light 14h 00m
Length of Day
13h 03m
Waning Crescent, 8% of the Moon is Illuminated
Sep 2
Waning Crescent
Sep 5
New
Sep 12
First Quarter
Sep 19
Full
Sep 26
Last Quarter

Hourly Weather History & Observations

Time (EDT) Temp. Heat Index Dew Point Humidity Pressure Visibility Wind Dir Wind Speed Gust Speed Precip Events Conditions
12:53 AM 72.0 °F - 70.0 °F 93% 29.88 in 8.0 mi South 9.2 mph - N/A   Overcast
1:53 AM 72.0 °F - 70.0 °F 93% 29.87 in 7.0 mi South 9.2 mph - N/A   Overcast
2:53 AM 72.0 °F - 70.0 °F 93% 29.85 in 8.0 mi South 8.1 mph - N/A   Overcast
3:29 AM 71.6 °F - 71.6 °F 100% 29.85 in 9.0 mi South 6.9 mph - N/A   Overcast
3:40 AM 71.6 °F - 71.6 °F 100% 29.85 in 9.0 mi South 5.8 mph - N/A   Overcast
3:53 AM 72.0 °F - 70.0 °F 93% 29.85 in 7.0 mi South 5.8 mph - N/A   Overcast
4:02 AM 71.6 °F - 69.8 °F 94% 29.85 in 2.5 mi South 5.8 mph - N/A   Overcast
4:09 AM 71.6 °F - 69.8 °F 94% 29.85 in 0.8 mi South 5.8 mph - N/A   Overcast
4:34 AM 71.6 °F - 69.8 °F 94% 29.85 in 0.2 mi South 6.9 mph - N/A Fog Fog
4:41 AM 71.6 °F - 69.8 °F 94% 29.85 in 0.2 mi South 5.8 mph - N/A Fog Fog
4:53 AM 71.1 °F - 70.0 °F 96% 29.84 in 0.2 mi South 5.8 mph - N/A Fog Fog
5:03 AM 71.6 °F - 69.8 °F 94% 29.85 in 0.5 mi South 6.9 mph - N/A Fog Fog
5:17 AM 71.6 °F - 69.8 °F 94% 29.85 in 0.5 mi SSE 8.1 mph - N/A Fog Fog
5:48 AM 71.6 °F - 69.8 °F 94% 29.85 in 0.2 mi South 5.8 mph - N/A Fog Fog
5:53 AM 71.1 °F - 70.0 °F 96% 29.86 in 0.2 mi South 4.6 mph - N/A Fog Fog
6:22 AM 71.6 °F - 69.8 °F 94% 29.86 in 0.2 mi SSE 5.8 mph - N/A Fog Fog
6:30 AM 71.6 °F - 69.8 °F 94% 29.86 in 0.2 mi SSE 5.8 mph - N/A Fog Fog
6:51 AM 71.6 °F - 69.8 °F 94% 29.86 in 0.5 mi South 6.9 mph - N/A Fog Fog
6:53 AM 71.1 °F - 70.0 °F 96% 29.86 in 0.5 mi South 6.9 mph - N/A Fog Fog
7:53 AM 73.0 °F - 71.1 °F 93% 29.86 in 0.5 mi South 6.9 mph - N/A Fog Fog
8:25 AM 71.6 °F - 71.6 °F 100% 29.86 in 0.2 mi SSE 10.4 mph - N/A Fog Fog
8:35 AM 71.6 °F - 71.6 °F 100% 29.86 in 0.8 mi South 8.1 mph - N/A   Mist
8:45 AM 71.6 °F - 71.6 °F 100% 29.85 in 1.5 mi South 9.2 mph - N/A   Overcast
8:53 AM 72.0 °F - 71.1 °F 97% 29.85 in 2.0 mi South 10.4 mph - N/A   Overcast
9:53 AM 73.9 °F - 71.1 °F 91% 29.85 in 5.0 mi South 10.4 mph - N/A   Overcast
10:45 AM 78.8 °F - 73.4 °F 83% 29.84 in 5.0 mi South 13.8 mph 19.6 mph N/A   Mostly Cloudy
10:53 AM 78.1 °F - 72.0 °F 81% 29.84 in 10.0 mi South 17.3 mph - N/A   Overcast
11:00 AM 77.0 °F - 71.6 °F 83% 29.84 in 10.0 mi South 15.0 mph - N/A   Mostly Cloudy
11:14 AM 78.8 °F - 71.6 °F 78% 29.84 in 10.0 mi South 13.8 mph - N/A   Mostly Cloudy
11:30 AM 78.8 °F - 71.6 °F 78% 29.84 in 10.0 mi South 15.0 mph 20.7 mph N/A   Mostly Cloudy
11:53 AM 80.1 °F 83.8 °F 72.0 °F 76% 29.83 in 10.0 mi South 15.0 mph - N/A   Overcast
12:06 PM 78.8 °F - 71.6 °F 78% 29.83 in 10.0 mi South 13.8 mph - N/A   Overcast
12:20 PM 78.8 °F - 71.6 °F 78% 29.83 in 10.0 mi South 13.8 mph - N/A   Overcast
12:53 PM 80.1 °F 84.2 °F 73.0 °F 79% 29.81 in 10.0 mi South 16.1 mph 20.7 mph N/A   Mostly Cloudy
1:16 PM 82.4 °F 88.2 °F 73.4 °F 74% 29.81 in 10.0 mi SSW 11.5 mph - N/A   Scattered Clouds
1:53 PM 78.1 °F - 71.1 °F 79% 29.82 in 10.0 mi South 18.4 mph - N/A   Mostly Cloudy
2:03 PM 78.8 °F - 71.6 °F 78% 29.81 in 10.0 mi South 13.8 mph 23.0 mph N/A   Mostly Cloudy
2:20 PM 80.6 °F 84.6 °F 71.6 °F 74% 29.81 in 10.0 mi SSW 17.3 mph 26.5 mph N/A   Scattered Clouds
2:53 PM 78.1 °F - 71.1 °F 79% 29.80 in 10.0 mi South 13.8 mph - N/A   Mostly Cloudy
3:05 PM 77.0 °F - 69.8 °F 78% 29.80 in 10.0 mi South 15.0 mph 23.0 mph N/A   Mostly Cloudy
3:17 PM 75.2 °F - 71.6 °F 89% 29.80 in 10.0 mi South 13.8 mph 21.9 mph N/A   Overcast
3:53 PM 75.0 °F - 70.0 °F 84% 29.79 in 10.0 mi SSW 12.7 mph 18.4 mph N/A   Overcast
4:02 PM 75.2 °F - 69.8 °F 83% 29.79 in 10.0 mi South 12.7 mph - N/A   Overcast
4:36 PM 73.4 °F - 69.8 °F 88% 29.78 in 10.0 mi South 12.7 mph - N/A   Overcast
4:53 PM 73.0 °F - 70.0 °F 90% 29.78 in 9.0 mi SSW 10.4 mph - 0.00 in   Overcast
5:53 PM 73.0 °F - 71.1 °F 93% 29.75 in 6.0 mi SSW 10.4 mph - 0.01 in Rain Light Rain
6:33 PM 71.6 °F - 69.8 °F 94% 29.75 in 6.0 mi South 9.2 mph - 0.00 in   Overcast
6:53 PM 72.0 °F - 70.0 °F 93% 29.75 in 6.0 mi South 10.4 mph - 0.00 in   Overcast
7:30 PM 71.6 °F - 69.8 °F 94% 29.75 in 8.0 mi South 11.5 mph - N/A   Overcast
7:53 PM 72.0 °F - 70.0 °F 93% 29.75 in 8.0 mi SSW 5.8 mph - N/A   Overcast
8:28 PM 71.6 °F - 69.8 °F 94% 29.76 in 7.0 mi SSW 9.2 mph - N/A   Overcast
8:53 PM 72.0 °F - 70.0 °F 93% 29.76 in 6.0 mi SSW 8.1 mph - N/A   Overcast
9:53 PM 72.0 °F - 70.0 °F 93% 29.76 in 6.0 mi SSW 9.2 mph - N/A   Overcast
10:03 PM 71.6 °F - 69.8 °F 94% 29.76 in 1.5 mi SSW 9.2 mph - N/A   Overcast
10:12 PM 71.6 °F - 69.8 °F 94% 29.76 in 0.5 mi SSW 8.1 mph - N/A Fog Fog
10:28 PM 71.6 °F - 71.6 °F 100% 29.77 in 1.5 mi SW 5.8 mph - N/A   Overcast
10:53 PM 71.1 °F - 70.0 °F 96% 29.76 in 0.8 mi SSW 5.8 mph - N/A   Mist
11:51 PM 71.6 °F - 71.6 °F 100% 29.76 in 2.0 mi WSW 5.8 mph - N/A   Overcast
11:52 PM 72.0 °F - 71.1 °F 97% 29.76 in 2.0 mi SW 5.8 mph - N/A   Overcast